This is the latest recevied weather packets stored in our database for station/object NC4M. If no packets are shown the sender has not sent any weather packets the latest 10 day(s).
| Time | Temp. | Humidity | Pressure | Rain* | Wind** | Luminosity | Snow |
|---|---|---|---|---|---|---|---|
| 1777894778 | 14.44° C | 67% | 1008.8 hPa | 0 mm | - | 18 W/m² | - |
| 1777894474 | 14.44° C | 69% | 1008.9 hPa | 0 mm | - | 14 W/m² | - |
| 1777894172 | 14.44° C | 69% | 1008.8 hPa | 0 mm | - | 11 W/m² | - |
| 1777893869 | 14.44° C | 69% | 1008.6 hPa | 0 mm | - | 9 W/m² | - |
| 1777893565 | 14.44° C | 68% | 1008.7 hPa | 0 mm | - | 7 W/m² | - |
| 1777893262 | 14.44° C | 69% | 1008.7 hPa | 0 mm | - | 4 W/m² | - |
| 1777892958 | 13.89° C | 69% | 1008.8 hPa | 0 mm | - | 3 W/m² | - |
| 1777892655 | 13.89° C | 69% | 1008.7 hPa | 0 mm | - | 1 W/m² | - |
| 1777892350 | 13.89° C | 69% | 1008.9 hPa | 0 mm | - | 1 W/m² | - |
| 1777892047 | 13.89° C | 69% | 1008.9 hPa | 0 mm | - | 0 W/m² | - |
| 1777891745 | 13.89° C | 71% | 1008.8 hPa | 0 mm | - | 0 W/m² | - |
| 1777891440 | 13.89° C | 69% | 1008.7 hPa | 0 mm | - | 0 W/m² | - |
| 1777891136 | 13.89° C | 70% | 1008.7 hPa | 0 mm | - | 0 W/m² | - |
| 1777890832 | 13.89° C | 68% | 1009.1 hPa | 0 mm | - | 0 W/m² | - |
| 1777890528 | 14.44° C | 71% | 1008.6 hPa | 0 mm | - | 0 W/m² | - |
| 1777890223 | 14.44° C | 69% | 1008.8 hPa | 0 mm | - | 0 W/m² | - |
| 1777889920 | 14.44° C | 67% | 1008.9 hPa | 0 mm | - | 0 W/m² | - |
| 1777889618 | 14.44° C | 66% | 1008.7 hPa | 0 mm | - | 0 W/m² | - |
| 1777889315 | 15° C | 68% | 1008.9 hPa | 0 mm | - | 0 W/m² | - |
| 1777889012 | 15° C | 68% | 1008.8 hPa | 0 mm | - | 0 W/m² | - |
| 1777888710 | 15° C | 66% | 1008.8 hPa | 0 mm | - | 0 W/m² | - |
| 1777888405 | 15° C | 67% | 1008.7 hPa | 0 mm | - | 0 W/m² | - |
| 1777888102 | 15° C | 66% | 1008.9 hPa | 0 mm | - | 0 W/m² | - |
| 1777887799 | 15° C | 67% | 1008.8 hPa | 0 mm | - | 0 W/m² | - |
| 1777887496 | 15° C | 66% | 1008.9 hPa | 0 mm | - | 0 W/m² | - |
* Rain latest hour (hover to see other rain measurements)
** Current wind speed in m/s (hover to see current wind gust speed)